CST,Max TemperatureF,Mean TemperatureF,Min TemperatureF,Max Dew PointF,MeanDew PointF,Min DewpointF,Max Humidity, Mean Humidity, Min Humidity, Max Sea Level PressureIn, Mean Sea Level PressureIn, Min Sea Level PressureIn, Max VisibilityMiles, Mean VisibilityMiles, Min VisibilityMiles, Max Wind SpeedMPH, Mean Wind SpeedMPH, Max Gust SpeedMPH,PrecipitationIn, CloudCover, Events, WindDirDegrees
2012-12-1,78,64,46,52,42,33,89,58,21,29.96,29.87,29.79,10,10,7,25,18,29,0.00,0,,204
2012-12-2,73,54,35,55,41,30,82,63,24,30.05,29.96,29.86,10,10,8,20,9,,0.00,0,,218
2012-12-3,80,66,51,59,45,25,96,61,14,30.07,29.86,29.75,10,8,3,25,18,31,0.00,1,,227
2012-12-4,64,52,37,38,26,14,66,41,14,30.34,30.25,30.06,10,10,10,21,12,20,0.00,0,,21
2012-12-5,63,46,28,38,25,21,72,44,20,30.33,30.18,29.96,10,10,8,18,5,,0.00,0,,160
2012-12-6,66,56,42,43,37,29,93,62,27,29.93,29.83,29.75,10,9,6,24,15,,0.00,0,,245
2012-12-7,57,46,35,41,36,32,100,75,53,29.94,29.88,29.81,10,8,0,12,7,,0.00,1,Fog,23
2012-12-8,48,40,33,44,39,32,100,95,80,29.97,29.88,29.76,8,3,0,13,6,,0.00,5,Fog,107
2012-12-9,50,40,30,45,28,7,100,67,24,30.20,29.94,29.74,10,6,0,29,13,34,0.00,5,Fog,7
2012-12-10,39,28,18,10,6,2,58,42,25,30.26,30.17,30.09,10,10,9,21,13,32,0.00,0,,315
2012-12-11,48,34,19,18,13,10,71,48,24,30.21,30.15,30.10,10,10,10,12,8,17,0.00,0,,199
2012-12-12,55,40,24,19,15,11,60,39,21,30.23,30.15,30.07,10,10,10,26,15,33,0.00,0,,182
2012-12-13,62,48,35,36,25,20,59,44,24,30.17,30.11,30.05,10,10,10,23,18,30,0.00,0,,189
2012-12-14,57,52,46,54,44,35,100,77,50,30.07,29.84,29.64,10,8,2,31,18,56,0.32,7,Rain-Thunderstorm,186
2012-12-15,57,47,37,40,37,34,87,64,47,29.83,29.76,29.70,10,10,10,22,16,,0.00,0,,223
2012-12-16,64,50,35,36,33,26,96,64,24,29.82,29.75,29.66,10,9,5,21,11,28,0.00,1,,281
2012-12-17,54,41,28,38,33,28,96,81,49,29.93,29.85,29.77,10,7,3,16,9,,0.00,1,,266
2012-12-18,63,46,30,32,29,26,82,58,25,29.81,29.77,29.73,10,10,10,16,11,,0.00,0,,76
2012-12-19,59,47,35,46,33,22,79,61,31,29.94,29.64,29.47,10,10,6,41,14,58,0.00,2,,231
2012-12-20,48,36,24,22,10,0,61,37,13,30.42,30.31,29.99,10,10,10,40,24,50,0.00,1,,310
2012-12-21,61,41,21,18,10,2,66,36,9,30.41,30.31,30.21,10,10,10,17,9,22,0.00,0,,233
2012-12-22,55,42,30,30,14,8,68,34,16,30.21,30.07,29.93,10,10,10,24,14,30,0.00,0,,205
2012-12-23,53,40,27,31,23,19,78,59,31,30.02,29.94,29.87,10,10,10,17,10,,0.00,0,,355
2012-12-24,42,33,24,21,20,19,88,64,43,30.09,29.99,29.89,10,8,7,16,9,,0.00,1,,50
2012-12-25,33,24,15,21,16,8,93,80,61,30.32,30.05,29.85,10,5,0,34,23,40,0.01,7,Fog-Snow,16
2012-12-26,21,16,10,15,9,4,81,73,62,30.35,30.25,30.09,10,10,7,24,13,31,0.00,1,,20
2012-12-27,32,24,16,27,20,13,100,88,79,30.07,29.97,29.87,10,8,2,21,9,,0.00,0,,165
2012-12-28,32,26,19,22,18,14,88,77,54,30.27,30.10,29.97,10,8,2,20,12,,0.00,4,Snow,354
2012-12-29,41,26,10,27,19,8,92,75,53,30.46,30.39,30.27,10,10,7,14,7,,0.00,0,,235
2012-12-30,39,32,25,28,24,20,81,71,62,30.38,30.27,30.13,10,10,10,21,13,,0.00,0,,178
2012-12-31,41,36,30,39,34,27,100,95,73,30.12,30.03,29.94,10,4,0,18,13,,0.12,7,Fog-Rain,212